GW5977 Weather Reports


time (UTC)temp
C
wind
direction
speed
KPH
gust
KPH
rain 1hr
cm
rain 24hr
cm
rain mn
cm
humidity
%
barometer
mb
20260509201947 30 125 0.0 1.6 0.00 0.00 0.00 68 1008.2
20260509201443 30 136 3.2 9.7 0.00 0.00 0.00 64 1008.1
20260509200940 30 141 3.2 6.4 0.00 0.00 0.00 64 1008.2
20260509200440 31 118 1.6 6.4 0.00 0.00 0.00 62 1008.1
20260509195937 30 125 1.6 3.2 0.00 0.00 0.00 65 1008.3
20260509195433 30 88 0.0 3.2 0.00 0.00 0.00 65 1008.2
20260509194932 29 83 1.6 3.2 0.00 0.00 0.00 67 1008.4
20260509194428 29 103 0.0 1.6 0.00 0.00 0.00 69 1008.5
20260509193925 30 123 1.6 4.8 0.00 0.00 0.00 68 1008.5
20260509193425 30 107 1.6 6.4 0.00 0.00 0.00 64 1008.6
20260509192921 29 90 3.2 4.8 0.00 0.00 0.00 65 1008.7
20260509192417 28 90 1.6 3.2 0.00 0.00 0.00 67 1008.7
20260509191912 29 129 6.4 11.3 0.00 0.00 0.00 67 1008.8
20260509191408 30 81 0.0 4.8 0.00 0.00 0.00 67 1008.7
20260509190904 30 147 3.2 6.4 0.00 0.00 0.00 65 1009.0
20260509190402 29 113 1.6 3.2 0.00 0.00 0.00 69 1009.0
20260509185859 30 140 4.8 6.4 0.00 0.00 0.00 66 1009.1
20260509185356 30 126 1.6 6.4 0.00 0.00 0.00 67 1009.0
20260509184853 28 99 1.6 4.8 0.00 0.00 0.00 70 1008.9
20260509184349 28 83 1.6 4.8 0.00 0.00 0.00 69 1009.0
20260509183847 28 94 3.2 3.2 0.00 0.00 0.00 71 1009.1
20260509183342 28 133 4.8 11.3 0.00 0.00 0.00 70 1009.1
20260509182838 28 130 3.2 6.4 0.00 0.00 0.00 69 1009.2
20260509182335 29 94 3.2 6.4 0.00 0.00 0.00 72 1009.3
20260509181832 28 86 3.2 6.4 0.00 0.00 0.00 74 1009.2
20260509181329 28 127 3.2 4.8 0.00 0.00 0.00 74 1009.4
20260509180827 27 128 0.0 1.6 0.00 0.00 0.00 76 1009.5
20260509180323 28 117 1.6 3.2 0.00 0.00 0.00 74 1009.5
20260509175819 27 115 0.0 3.2 0.00 0.00 0.00 77 1009.4
20260509175316 27 129 1.6 4.8 0.00 0.00 0.00 76 1009.6
20260509174812 27 96 0.0 1.6 0.00 0.00 0.00 79 1009.8
20260509174307 27 93 4.8 4.8 0.00 0.00 0.00 79 1009.9
20260509173804 26 113 0.0 4.8 0.00 0.00 0.00 80 1009.9
20260509173259 27 123 3.2 6.4 0.00 0.00 0.00 80 1009.8
20260509172755 27 135 3.2 4.8 0.00 0.00 0.00 80 1009.8
20260509172252 26 117 3.2 3.2 0.00 0.00 0.00 81 1009.9
20260509171748 26 126 1.6 3.2 0.00 0.00 0.00 81 1009.9
20260509171244 26 116 3.2 3.2 0.00 0.00 0.00 81 1009.9
20260509170741 26 128 1.6 4.8 0.00 0.00 0.00 81 1010.0
20260509170237 26 110 1.6 1.6 0.00 0.00 0.00 85 1010.1
20260509165736 26 110 0.0 1.6 0.00 0.00 0.00 84 1010.0
20260509165231 26 110 0.0 0.0 0.00 0.00 0.00 84 1010.2
20260509164727 26 89 0.0 0.0 0.00 0.00 0.00 82 1010.2
20260509164223 26 71 3.2 4.8 0.00 0.00 0.00 82 1010.1
20260509163721 26 144 0.0 0.0 0.00 0.00 0.00 84 1010.2
20260509163217 26 84 3.2 4.8 0.00 0.00 0.00 85 1010.2
20260509162715 25 68 3.2 3.2 0.00 0.00 0.00 89 1010.3
20260509162210 25 84 1.6 3.2 0.00 0.00 0.00 89 1010.4
20260509161706 25 77 1.6 3.2 0.00 0.00 0.00 91 1010.3
20260509161201 25 121 1.6 1.6 0.00 0.00 0.00 93 1010.2
20260509160657 24 137 1.6 4.8 0.00 0.00 0.00 94 1010.2
20260509160153 24 119 0.0 3.2 0.00 0.00 0.00 96 1010.2
20260509155649 23 117 0.0 3.2 0.00 0.00 0.00 97 1010.3
20260509155146 23 143 1.6 4.8 0.00 0.00 0.00 96 1010.4
20260509154641 23 89 0.0 1.6 0.00 0.00 0.00 97 1010.5
20260509154139 23 112 0.0 3.2 0.00 0.00 0.00 97 1010.3
20260509153636 23 112 0.0 3.2 0.00 0.00 0.00 97 1010.2
20260509153132 23 112 0.0 1.6 0.00 0.00 0.00 97 1010.1
20260509152628 23 112 0.0 0.0 0.00 0.00 0.00 98 1010.3
20260509152126 23 112 0.0 0.0 0.00 0.00 0.00 97 1009.9
20260509151622 23 112 0.0 0.0 0.00 0.00 0.00 98 1010.0
20260509151120 22 112 0.0 0.0 0.00 0.00 0.00 98 1009.7
20260509150617 22 112 0.0 0.0 0.00 0.00 0.00 98 1009.7
20260509150115 22 112 0.0 0.0 0.00 0.00 0.00 98 1009.8
20260509145611 22 112 0.0 0.0 0.00 0.00 0.00 98 1009.8
20260509145106 22 112 0.0 0.0 0.00 0.00 0.00 98 1009.9
20260509144603 22 112 0.0 0.0 0.00 0.00 0.00 98 1009.9
20260509144100 22 112 0.0 0.0 0.00 0.00 0.00 98 1010.0
20260509143557 22 112 0.0 0.0 0.00 0.00 0.00 98 1010.0
20260509143055 22 112 0.0 0.0 0.00 0.00 0.00 98 1010.0
20260509142550 22 112 0.0 0.0 0.00 0.00 0.00 98 1010.1
20260509142046 22 112 1.6 1.6 0.00 0.00 0.00 98 1010.1
20260509141543 22 112 1.6 1.6 0.00 0.00 0.00 98 1010.0
20260509141040 22 112 0.0 0.0 0.00 0.00 0.00 98 1010.0
20260509140536 22 112 0.0 0.0 0.00 0.00 0.00 98 1010.0
20260509140034 22 112 0.0 0.0 0.00 0.00 0.00 98 1009.9
20260509135531 22 91 0.0 0.0 0.00 0.00 0.00 98 1010.2
20260509135029 22 94 0.0 0.0 0.00 0.00 0.00 98 1009.7
20260509134526 22 169 4.8 4.8 0.00 0.00 0.00 98 1009.4
20260509134023 22 98 1.6 3.2 0.00 0.00 0.00 98 1009.1
20260509133520 22 128 1.6 4.8 0.00 0.00 0.00 98 1009.0
20260509133018 22 139 0.0 4.8 0.00 0.00 0.00 98 1009.0
20260509132516 22 130 1.6 1.6 0.00 0.00 0.00 98 1009.0
20260509132014 22 130 3.2 3.2 0.00 0.00 0.00 98 1009.3
20260509131510 22 130 1.6 3.2 0.00 0.00 0.00 98 1009.2
20260509131007 22 130 0.0 0.0 0.00 0.00 0.00 98 1009.3
20260509130502 22 130 1.6 3.2 0.00 0.00 0.00 98 1009.2
20260509125959 22 130 0.0 0.0 0.00 0.00 0.00 98 1009.2
20260509125455 21 130 0.0 0.0 0.00 0.00 0.00 98 1009.2
20260509124951 21 130 0.0 0.0 0.00 0.00 0.00 98 1009.1
20260509124449 21 130 0.0 0.0 0.00 0.00 0.00 98 1009.2
20260509123946 21 130 0.0 0.0 0.00 0.00 0.00 98 1009.5
20260509123443 21 130 0.0 0.0 0.00 0.00 0.00 97 1009.1
20260509122939 21 130 0.0 0.0 0.00 0.00 0.00 98 1009.1
20260509122436 21 130 0.0 1.6 0.00 0.00 0.00 97 1008.9
20260509121933 21 129 0.0 0.0 0.00 0.00 0.00 97 1009.1
20260509121430 21 129 0.0 0.0 0.00 0.00 0.00 97 1009.1
20260509120928 21 129 0.0 3.2 0.00 0.00 0.00 97 1008.9
20260509120426 21 129 0.0 0.0 0.00 0.00 0.00 97 1008.9
20260509115924 21 128 0.0 1.6 0.00 0.00 0.00 97 1008.7
20260509115420 21 128 0.0 1.6 0.00 0.00 0.00 97 1008.7
20260509114918 21 128 1.6 1.6 0.00 0.00 0.00 97 1008.6
20260509114416 21 128 1.6 3.2 0.00 0.00 0.00 97 1008.7
20260509113916 21 111 0.0 1.6 0.00 0.00 0.00 97 1009.2
20260509113413 21 110 0.0 0.0 0.00 0.00 0.00 97 1009.2
20260509112909 21 110 0.0 0.0 0.00 0.00 0.00 97 1009.3
20260509112406 21 110 0.0 0.0 0.00 0.00 0.00 97 1009.3
20260509111903 21 111 0.0 0.0 0.00 0.00 0.00 97 1008.9
20260509111400 21 136 3.2 4.8 0.00 0.00 0.00 97 1008.7
20260509110858 21 124 0.0 0.0 0.00 0.00 0.00 97 1009.0
20260509110353 21 124 0.0 0.0 0.00 0.00 0.00 97 1009.2
20260509105852 21 124 0.0 0.0 0.00 0.00 0.00 97 1009.3
20260509105350 21 124 0.0 0.0 0.00 0.00 0.00 97 1009.5
20260509104847 21 124 0.0 0.0 0.00 0.00 0.00 97 1009.5
20260509104343 21 124 0.0 0.0 0.00 0.00 0.00 97 1009.4
20260509103841 21 124 0.0 0.0 0.00 0.00 0.00 97 1009.2
20260509103338 21 124 0.0 0.0 0.00 0.00 0.00 97 1009.3
20260509102837 21 124 0.0 0.0 0.00 0.00 0.00 97 1009.2
20260509102333 21 124 0.0 0.0 0.00 0.00 0.00 97 1009.1
20260509101829 21 124 0.0 0.0 0.00 0.00 0.00 97 1009.1
20260509101326 21 124 0.0 0.0 0.00 0.00 0.00 97 1009.0
20260509100824 21 124 0.0 0.0 0.00 0.00 0.00 97 1008.9
20260509100320 21 124 0.0 0.0 0.00 0.00 0.00 97 1008.8
20260509095817 21 124 0.0 0.0 0.00 0.00 0.00 97 1008.8
20260509095314 21 124 0.0 1.6 0.00 0.00 0.00 97 1008.7
20260509094811 21 117 0.0 1.6 0.00 0.00 0.00 97 1008.6
20260509094308 21 116 1.6 1.6 0.00 0.00 0.00 97 1008.6
20260509093806 21 116 0.0 0.0 0.00 0.00 0.00 97 1009.2
20260509093303 21 110 0.0 0.0 0.00 0.00 0.00 97 1009.1
20260509092801 21 79 0.0 0.0 0.00 0.00 0.00 97 1009.3
20260509092259 21 79 0.0 0.0 0.00 0.00 0.00 97 1009.2
20260509091757 21 79 0.0 0.0 0.00 0.00 0.00 97 1009.3
20260509091253 21 79 0.0 0.0 0.00 0.00 0.00 97 1009.1
20260509090750 21 79 0.0 1.6 0.00 0.00 0.00 96 1009.6
20260509090247 21 119 1.6 3.2 0.00 0.00 0.00 96 1009.4
20260509085745 21 78 0.0 1.6 0.00 0.00 0.00 96 1009.5
20260509085242 21 123 0.0 1.6 0.00 0.00 0.00 96 1009.1
20260509084739 21 147 4.8 4.8 0.00 0.00 0.00 96 1009.0
20260509084235 21 139 1.6 3.2 0.00 0.00 0.00 96 1009.3
20260509083733 21 139 1.6 3.2 0.00 0.00 0.00 96 1009.3
20260509083230 21 135 1.6 3.2 0.00 0.00 0.00 96 1009.3
20260509082726 21 135 0.0 0.0 0.00 0.00 0.00 96 1009.3
20260509082223 21 135 0.0 0.0 0.00 0.00 0.00 96 1009.5
20260509081720 21 135 0.0 0.0 0.00 0.00 0.00 96 1009.5
20260509081218 21 135 0.0 0.0 0.00 0.00 0.00 96 1009.8
20260509080716 21 135 0.0 0.0 0.00 0.00 0.00 96 1009.7
20260509080213 21 135 0.0 0.0 0.00 0.00 0.00 95 1009.9
20260509075711 21 135 0.0 0.0 0.00 0.00 0.00 95 1009.9
20260509075209 21 135 0.0 0.0 0.00 0.00 0.00 95 1010.1
20260509074705 21 135 0.0 0.0 0.00 0.00 0.00 95 1010.2
20260509074202 21 135 0.0 0.0 0.00 0.00 0.00 95 1010.3
20260509073659 21 135 0.0 0.0 0.00 0.00 0.00 95 1010.3
20260509073155 21 135 0.0 0.0 0.00 0.00 0.00 95 1010.3
20260509072652 21 135 0.0 0.0 0.00 0.00 0.00 95 1010.2
20260509072148 21 135 0.0 0.0 0.00 0.00 0.00 95 1010.1
20260509071645 21 135 0.0 0.0 0.00 0.00 0.00 95 1010.1
20260509071143 21 135 0.0 0.0 0.00 0.00 0.00 95 1010.0
20260509070639 21 135 0.0 0.0 0.00 0.00 0.00 95 1010.1
20260509070136 21 135 0.0 0.0 0.00 0.00 0.00 94 1009.9
20260509065632 21 135 0.0 0.0 0.00 0.00 0.00 94 1009.8
20260509065128 21 135 0.0 0.0 0.00 0.00 0.00 94 1009.9
20260509064625 21 135 0.0 0.0 0.00 0.00 0.00 94 1009.9
20260509064123 21 135 0.0 0.0 0.00 0.00 0.00 94 1009.8
20260509063620 21 135 0.0 0.0 0.00 0.00 0.00 94 1009.9
20260509063116 21 135 0.0 0.0 0.00 0.00 0.00 94 1009.9
20260509062613 21 135 0.0 0.0 0.00 0.00 0.00 94 1009.8
20260509062110 21 135 0.0 0.0 0.00 0.00 0.00 94 1009.9
20260509061607 21 135 0.0 0.0 0.00 0.00 0.00 94 1009.6
20260509061105 21 135 0.0 4.8 0.00 0.00 0.00 94 1009.6
20260509060602 21 133 1.6 3.2 0.00 0.00 0.00 93 1009.6
20260509060058 21 104 0.0 1.6 0.00 0.00 0.00 93 1009.4
20260509055553 21 136 1.6 3.2 0.00 0.00 0.00 93 1009.3
20260509055050 21 119 1.6 3.2 0.00 0.00 0.00 93 1009.3
20260509054546 21 120 3.2 4.8 0.00 0.00 0.00 93 1009.3
20260509054044 21 140 3.2 6.4 0.00 0.00 0.00 93 1009.4
20260509053543 21 99 1.6 4.8 0.00 0.00 0.00 93 1009.3
20260509053039 21 122 1.6 3.2 0.00 0.00 0.00 93 1009.4
20260509052537 21 127 3.2 4.8 0.00 0.00 0.00 93 1009.4
20260509052035 21 107 0.0 3.2 0.00 0.00 0.00 93 1009.2
20260509051533 21 143 3.2 6.4 0.00 0.00 0.00 93 1009.3
20260509051030 21 110 0.0 3.2 0.00 0.00 0.00 93 1009.3
20260509050526 21 143 1.6 3.2 0.00 0.00 0.00 93 1009.2
20260509050023 21 120 1.6 3.2 0.00 0.00 0.00 94 1009.4
20260509045520 21 116 4.8 6.4 0.00 0.00 0.00 94 1009.4
20260509045017 21 160 1.6 6.4 0.00 0.00 0.00 94 1009.5
20260509044515 21 139 0.0 1.6 0.00 0.00 0.00 94 1009.5
20260509044012 21 127 0.0 3.2 0.00 0.00 0.00 94 1009.4
20260509043508 21 113 1.6 4.8 0.00 0.00 0.00 94 1009.4
20260509043004 21 148 3.2 4.8 0.00 0.00 0.00 95 1009.2
20260509042500 21 129 3.2 4.8 0.00 0.00 0.00 95 1009.2
20260509041956 21 131 3.2 4.8 0.00 0.00 0.00 95 1009.3
20260509041453 21 135 0.0 1.6 0.00 0.00 0.00 95 1009.3
20260509040951 21 133 0.0 4.8 0.00 0.00 0.00 95 1009.3
20260509040449 21 133 3.2 4.8 0.00 0.00 0.00 95 1009.0
20260509035945 21 131 1.6 4.8 0.00 0.00 0.00 95 1009.1
20260509035442 21 142 1.6 3.2 0.00 0.00 0.00 96 1009.1
20260509034939 21 120 0.0 1.6 0.00 0.00 0.00 96 1009.0
20260509034437 21 117 1.6 3.2 0.00 0.00 0.00 96 1008.9
20260509033934 21 121 1.6 6.4 0.00 0.00 0.00 96 1008.9
20260509033431 21 121 0.0 4.8 0.00 0.00 0.00 96 1009.0
20260509032927 20 121 0.0 1.6 0.00 0.00 0.00 96 1008.9
20260509032425 20 135 0.0 1.6 0.00 0.00 0.00 95 1008.9
20260509031923 20 130 0.0 3.2 0.00 0.00 0.00 95 1008.8
20260509031420 20 126 0.0 1.6 0.00 0.00 0.00 95 1009.0
20260509030917 20 126 0.0 0.0 0.00 0.00 0.00 95 1008.6
20260509030415 20 126 0.0 0.0 0.00 0.00 0.00 95 1008.8
20260509025912 20 126 0.0 0.0 0.00 0.00 0.00 95 1008.7
20260509025407 20 126 0.0 0.0 0.00 0.00 0.00 94 1008.5
20260509024902 20 126 0.0 0.0 0.00 0.00 0.00 94 1008.7
20260509024359 20 126 0.0 0.0 0.00 0.00 0.00 94 1008.8
20260509023856 20 126 0.0 0.0 0.00 0.00 0.00 94 1008.7
20260509023353 20 126 0.0 0.0 0.00 0.00 0.00 94 1008.5
20260509022850 20 126 0.0 0.0 0.00 0.00 0.00 94 1008.5
20260509022347 20 126 0.0 0.0 0.00 0.00 0.00 93 1008.4
20260509021844 20 126 0.0 0.0 0.00 0.00 0.00 93 1008.2
20260509021341 20 126 0.0 0.0 0.00 0.00 0.00 93 1008.3
20260509020839 20 126 0.0 0.0 0.00 0.00 0.00 92 1008.2
20260509020337 20 126 0.0 0.0 0.00 0.00 0.00 92 1008.2
20260509015834 21 126 0.0 0.0 0.00 0.00 0.00 92 1008.3
20260509015332 21 126 0.0 0.0 0.00 0.00 0.00 92 1008.2
20260509014828 21 126 0.0 0.0 0.00 0.00 0.00 91 1008.1
20260509014325 21 126 0.0 0.0 0.00 0.00 0.00 91 1007.9
20260509013822 21 126 0.0 0.0 0.00 0.00 0.00 90 1007.8
20260509013318 21 126 0.0 0.0 0.00 0.00 0.00 90 1007.9
20260509012814 21 126 0.0 0.0 0.00 0.00 0.00 89 1008.0
20260509012311 22 126 0.0 0.0 0.00 0.00 0.00 88 1008.0
20260509011809 22 126 0.0 0.0 0.00 0.00 0.00 88 1008.0
20260509011306 22 126 1.6 3.2 0.00 0.00 0.00 88 1008.0
20260509010803 22 117 0.0 1.6 0.00 0.00 0.00 87 1007.8
20260509010300 22 117 0.0 3.2 0.00 0.00 0.00 86 1007.7
20260509005758 22 110 0.0 1.6 0.00 0.00 0.00 86 1007.7
20260509005256 22 110 0.0 0.0 0.00 0.00 0.00 85 1007.8
20260509004755 22 110 0.0 1.6 0.00 0.00 0.00 84 1007.9
20260509004252 23 118 1.6 3.2 0.00 0.00 0.00 83 1007.9
20260509003750 23 119 3.2 4.8 0.00 0.00 0.00 83 1007.9
20260509003247 23 122 0.0 6.4 0.00 0.00 0.00 82 1008.1
20260509002745 23 121 1.6 3.2 0.00 0.00 0.00 82 1007.9
20260509002242 23 138 1.6 4.8 0.00 0.00 0.00 81 1007.8
20260509001740 23 129 6.4 6.4 0.00 0.00 0.00 80 1007.9
20260509001235 24 94 1.6 6.4 0.00 0.00 0.00 80 1008.0
20260509000733 24 108 1.6 1.6 0.00 0.00 0.00 81 1008.0
20260509000230 24 108 0.0 1.6 0.00 0.00 0.00 82 1008.2
20260508235727 24 120 1.6 6.4 0.00 0.00 0.00 81 1008.5
20260508235224 24 111 1.6 3.2 0.00 0.00 0.00 82 1008.7
20260508234722 24 108 0.0 4.8 0.00 0.00 0.00 82 1008.6
20260508234218 24 140 3.2 3.2 0.00 0.00 0.00 82 1008.5
20260508233717 25 168 6.4 9.7 0.00 0.00 0.00 81 1008.5
20260508233215 25 129 1.6 3.2 0.00 0.00 0.00 82 1008.4
20260508232712 24 129 0.0 1.6 0.00 0.00 0.00 82 1008.6
20260508232208 24 94 0.0 1.6 0.00 0.00 0.00 82 1008.5
20260508231706 25 94 0.0 1.6 0.00 0.00 0.00 83 1008.6
20260508231203 25 94 0.0 1.6 0.00 0.00 0.00 82 1008.4
20260508230700 25 94 0.0 0.0 0.00 0.00 0.00 82 1008.5
20260508230156 25 94 0.0 0.0 0.00 0.00 0.00 81 1008.4
20260508225654 25 94 0.0 0.0 0.00 0.00 0.00 81 1008.7
20260508225150 25 94 0.0 0.0 0.00 0.00 0.00 79 1008.7
20260508224648 25 95 0.0 3.2 0.00 0.00 0.00 78 1008.7
20260508224145 25 95 0.0 1.6 0.00 0.00 0.00 76 1008.6
20260508223643 26 106 0.0 1.6 0.00 0.00 0.00 75 1008.5
20260508223140 26 106 0.0 0.0 0.00 0.00 0.00 77 1008.8
20260508222637 26 106 1.6 3.2 0.00 0.00 0.00 78 1008.7
20260508222134 25 106 0.0 1.6 0.00 0.00 0.00 77 1008.8
20260508221630 25 106 0.0 1.6 0.00 0.00 0.00 76 1008.8
20260508221126 25 106 1.6 1.6 0.00 0.00 0.00 76 1009.1
20260508220623 25 106 0.0 1.6 0.00 0.00 0.00 77 1008.9
20260508220120 25 106 0.0 1.6 0.00 0.00 0.00 77 1009.0
20260508215616 25 106 0.0 1.6 0.00 0.00 0.00 76 1008.8
20260508215113 25 107 0.0 3.2 0.00 0.00 0.00 76 1008.8
20260508214610 26 127 0.0 4.8 0.00 0.00 0.00 74 1008.8
20260508214107 26 125 1.6 3.2 0.00 0.00 0.00 76 1008.8
20260508213604 25 124 1.6 3.2 0.00 0.00 0.00 76 1008.8
20260508213100 25 124 1.6 1.6 0.00 0.00 0.00 75 1008.8
20260508212556 25 123 1.6 3.2 0.00 0.00 0.00 75 1008.8
20260508212053 25 101 1.6 4.8 0.00 0.00 0.00 76 1008.7
20260508211548 25 99 1.6 3.2 0.00 0.00 0.00 75 1008.8
20260508211045 25 123 1.6 6.4 0.00 0.00 0.00 75 1008.9
20260508210541 26 103 1.6 4.8 0.00 0.00 0.00 74 1009.0
20260508210039 25 116 0.0 3.2 0.00 0.00 0.00 75 1009.0
20260508205536 25 113 1.6 1.6 0.00 0.00 0.00 73 1009.0
20260508205032 25 110 0.0 1.6 0.00 0.00 0.00 74 1009.1
20260508204529 25 133 0.0 1.6 0.00 0.00 0.00 74 1009.1
20260508204025 25 113 1.6 3.2 0.00 0.00 0.00 74 1009.2
20260508203521 26 125 1.6 6.4 0.00 0.00 0.00 73 1009.4
20260508203017 25 102 0.0 3.2 0.00 0.00 0.00 74 1009.4
20260508202514 25 141 1.6 3.2 0.00 0.00 0.00 76 1009.3